When you browse on this site, cookies collect data to enhance your experience and personalize the content and advertising you see.
Visit our Privacy Policy to learn more. By continuing to use the site, you agree to this use of cookies and data.
  • en Suisse
  • Liste des pays
  • À 7 jours
  • Température de l'eau
  • Carte météo
  • Widgets météo
  • user-avatar
    Se connecter

    Météo par heure à Malanje

    Ce jour, 21 Novembre, Jeudi

    Heure Température Précipitation Vent Pression Humidité
    00:00 +20°C° 0.6 mm 1 m/s 663 mmHg 98%
    01:00 +19°C° 0 mm 1 m/s 663 mmHg 98%
    02:00 +19°C° 0.4 mm 1 m/s 663 mmHg 98%
    03:00 +19°C° 0.4 mm 1 m/s 663 mmHg 98%
    04:00 +19°C° 0.4 mm 1 m/s 663 mmHg 98%
    05:00 +19°C° 0.1 mm 1 m/s 664 mmHg 97%
    06:00 +20°C° 0.1 mm 1 m/s 664 mmHg 97%
    07:00 +20°C° 0 mm 1 m/s 665 mmHg 96%
    08:00 +22°C° 0.1 mm 1 m/s 665 mmHg 92%
    09:00 +23°C° 0.1 mm 1 m/s 665 mmHg 88%
    10:00 +24°C° 0.1 mm 1 m/s 665 mmHg 84%
    11:00 +25°C° 0.2 mm 1 m/s 665 mmHg 81%
    12:00 +26°C° 0.2 mm 1 m/s 664 mmHg 77%
    13:00 +27°C° 0.2 mm 1 m/s 664 mmHg 74%
    14:00 +27°C° 0.2 mm 1 m/s 663 mmHg 75%
    15:00 +26°C° 0.2 mm 1 m/s 663 mmHg 77%
    16:00 +26°C° 0.2 mm 2 m/s 662 mmHg 78%
    17:00 +25°C° 0.6 mm 2 m/s 662 mmHg 83%
    18:00 +23°C° 0.6 mm 2 m/s 663 mmHg 88%
    19:00 +21°C° 0.6 mm 2 m/s 664 mmHg 93%
    20:00 +20°C° 0.8 mm 2 m/s 664 mmHg 94%
    21:00 +20°C° 0.8 mm 2 m/s 664 mmHg 95%
    22:00 +20°C° 0.8 mm 2 m/s 664 mmHg 96%
    23:00 +19°C° 0.9 mm 2 m/s 664 mmHg 96%

    Demain, 22 Novembre, Vendredi

    Heure Température Précipitation Vent Pression Humidité
    00:00 +19°C° 0.9 mm 2 m/s 664 mmHg 97%
    01:00 +20°C° 0.9 mm 1 m/s 664 mmHg 98%
    02:00 +19°C° 0.7 mm 2 m/s 664 mmHg 98%
    03:00 +19°C° 0.7 mm 2 m/s 664 mmHg 98%
    04:00 +19°C° 0.7 mm 2 m/s 664 mmHg 98%
    05:00 +18°C° 0.3 mm 2 m/s 664 mmHg 97%
    06:00 +18°C° 0.3 mm 2 m/s 665 mmHg 97%
    07:00 +18°C° 0.3 mm 3 m/s 665 mmHg 97%
    08:00 +19°C° 0.1 mm 3 m/s 665 mmHg 94%
    09:00 +20°C° 0.1 mm 3 m/s 665 mmHg 90%
    10:00 +21°C° 0.1 mm 3 m/s 665 mmHg 86%
    11:00 +24°C° 0 mm 2 m/s 665 mmHg 80%
    12:00 +26°C° 0 mm 2 m/s 665 mmHg 73%
    13:00 +27°C° 0 mm 2 m/s 665 mmHg 67%
    14:00 +27°C° 0 mm 2 m/s 664 mmHg 69%
    15:00 +27°C° 0 mm 2 m/s 664 mmHg 72%
    16:00 +27°C° 0 mm 2 m/s 663 mmHg 74%
    17:00 +25°C° 0.2 mm 2 m/s 663 mmHg 81%
    18:00 +23°C° 0.2 mm 2 m/s 663 mmHg 87%
    19:00 +20°C° 0.2 mm 3 m/s 663 mmHg 94%
    20:00 +20°C° 0.8 mm 2 m/s 664 mmHg 95%
    21:00 +19°C° 0.8 mm 2 m/s 664 mmHg 96%
    22:00 +20°C° 0.8 mm 1 m/s 664 mmHg 97%
    23:00 +18°C° 1.1 mm 2 m/s 664 mmHg 97%

    Après-demain, 23 Novembre, Samedi

    Heure Température Précipitation Vent Pression Humidité
    00:00 +18°C° 1.1 mm 2 m/s 664 mmHg 98%
    01:00 +18°C° 1.1 mm 3 m/s 664 mmHg 98%
    02:00 +18°C° 0.3 mm 3 m/s 664 mmHg 98%
    03:00 +18°C° 0.3 mm 2 m/s 663 mmHg 98%
    04:00 +18°C° 0.3 mm 2 m/s 663 mmHg 98%
    05:00 +18°C° 0 mm 2 m/s 664 mmHg 97%
    06:00 +19°C° 0 mm 2 m/s 664 mmHg 97%
    07:00 +19°C° 0 mm 2 m/s 665 mmHg 96%
    08:00 +21°C° 0 mm 1 m/s 665 mmHg 94%
    09:00 +21°C° 0 mm 1 m/s 665 mmHg 92%
    10:00 +22°C° 0 mm 1 m/s 666 mmHg 89%
    11:00 +22°C° 0.2 mm 1 m/s 665 mmHg 88%
    12:00 +23°C° 0.2 mm 1 m/s 665 mmHg 86%
    13:00 +24°C° 0.2 mm 1 m/s 665 mmHg 84%
    14:00 +23°C° 0.3 mm 1 m/s 665 mmHg 85%
    15:00 +23°C° 0.3 mm 1 m/s 664 mmHg 87%
    16:00 +23°C° 0.3 mm 1 m/s 664 mmHg 88%
    17:00 +22°C° 0.7 mm 1 m/s 664 mmHg 91%
    18:00 +21°C° 0.7 mm 1 m/s 664 mmHg 94%
    19:00 +20°C° 0.7 mm 1 m/s 664 mmHg 96%
    20:00 +20°C° 0.1 mm 1 m/s 664 mmHg 96%
    21:00 +20°C° 0.1 mm 1 m/s 665 mmHg 96%
    22:00 +20°C° 0.1 mm 1 m/s 665 mmHg 96%
    23:00 +20°C° 0 mm 1 m/s 664 mmHg 97%

    24 Novembre, Dimanche

    Heure Température Précipitation Vent Pression Humidité
    00:00 +20°C° 0 mm 1 m/s 664 mmHg 97%
    01:00 +20°C° 0 mm 1 m/s 664 mmHg 97%
    02:00 +20°C° 0 mm 1 m/s 664 mmHg 98%
    03:00 +20°C° 0 mm 1 m/s 664 mmHg 98%
    04:00 +18°C° 0 mm 0 m/s 664 mmHg 98%
    05:00 +18°C° 0 mm 0 m/s 664 mmHg 98%
    06:00 +18°C° 0 mm 0 m/s 664 mmHg 97%
    07:00 +18°C° 0 mm 0 m/s 665 mmHg 97%
    08:00 +20°C° 0 mm 0 m/s 665 mmHg 91%
    09:00 +22°C° 0 mm 0 m/s 666 mmHg 85%
    10:00 +24°C° 0 mm 0 m/s 666 mmHg 79%
    11:00 +24°C° 1 mm 0 m/s 666 mmHg 79%
    12:00 +25°C° 1 mm 0 m/s 665 mmHg 79%
    13:00 +26°C° 1 mm 0 m/s 665 mmHg 79%
    14:00 +24°C° 2.1 mm 0 m/s 664 mmHg 83%
    15:00 +23°C° 2.1 mm 0 m/s 664 mmHg 88%
    16:00 +22°C° 2.1 mm 0 m/s 663 mmHg 92%
    17:00 +21°C° 1 mm 0 m/s 663 mmHg 93%
    18:00 +22°C° 1 mm 1 m/s 663 mmHg 93%
    19:00 +21°C° 1 mm 1 m/s 664 mmHg 94%
    20:00 +21°C° 0.1 mm 1 m/s 664 mmHg 95%
    21:00 +20°C° 0.1 mm 1 m/s 664 mmHg 96%
    22:00 +20°C° 0.1 mm 1 m/s 665 mmHg 97%
    23:00 +20°C° 0.1 mm 1 m/s 664 mmHg 97%

    25 Novembre, Lundi

    Heure Température Précipitation Vent Pression Humidité
    00:00 +20°C° 0.1 mm 1 m/s 664 mmHg 98%
    01:00 +19°C° 0.1 mm 1 m/s 664 mmHg 98%
    02:00 +19°C° 0 mm 1 m/s 664 mmHg 98%
    03:00 +19°C° 0 mm 1 m/s 664 mmHg 98%
    04:00 +17°C° 0 mm 0 m/s 663 mmHg 99%
    05:00 +17°C° 0 mm 0 m/s 664 mmHg 98%
    06:00 +18°C° 0 mm 0 m/s 664 mmHg 98%
    07:00 +18°C° 0 mm 0 m/s 665 mmHg 97%
    08:00 +20°C° 0.4 mm 0 m/s 665 mmHg 93%
    09:00 +22°C° 0.4 mm 0 m/s 666 mmHg 89%
    10:00 +23°C° 0.4 mm 0 m/s 666 mmHg 85%
    11:00 +25°C° 1.7 mm 1 m/s 665 mmHg 85%
    12:00 +25°C° 1.7 mm 1 m/s 664 mmHg 85%
    13:00 +26°C° 1.7 mm 1 m/s 664 mmHg 85%
    14:00 +25°C° 1.3 mm 1 m/s 663 mmHg 86%
    15:00 +25°C° 1.3 mm 1 m/s 663 mmHg 87%
    16:00 +25°C° 1.3 mm 1 m/s 662 mmHg 88%
    17:00 +24°C° 1.3 mm 1 m/s 663 mmHg 91%
    18:00 +23°C° 1.3 mm 1 m/s 663 mmHg 93%
    19:00 +22°C° 1.3 mm 1 m/s 663 mmHg 95%
    20:00 +21°C° 0.4 mm 1 m/s 664 mmHg 96%
    21:00 +21°C° 0.4 mm 1 m/s 664 mmHg 96%
    22:00 +21°C° 0.4 mm 1 m/s 665 mmHg 97%
    23:00 +20°C° 0.1 mm 1 m/s 664 mmHg 97%

    26 Novembre, Mardi

    Heure Température Précipitation Vent Pression Humidité
    00:00 +20°C° 0.1 mm 1 m/s 664 mmHg 97%
    01:00 +20°C° 0.1 mm 1 m/s 663 mmHg 98%
    02:00 +20°C° 0.7 mm 1 m/s 663 mmHg 98%
    03:00 +20°C° 0.7 mm 1 m/s 663 mmHg 97%
    04:00 +19°C° 0.7 mm 1 m/s 663 mmHg 97%
    05:00 +20°C° 0.2 mm 1 m/s 664 mmHg 96%
    06:00 +18°C° 0.2 mm 0 m/s 664 mmHg 96%
    07:00 +19°C° 0.2 mm 0 m/s 665 mmHg 95%
    08:00 +22°C° 0.3 mm 1 m/s 665 mmHg 93%
    09:00 +22°C° 0.3 mm 1 m/s 665 mmHg 91%
    10:00 +23°C° 0.3 mm 1 m/s 666 mmHg 90%
    11:00 +24°C° 0.2 mm 1 m/s 665 mmHg 85%
    12:00 +25°C° 0.2 mm 1 m/s 665 mmHg 79%
    13:00 +26°C° 0.2 mm 1 m/s 664 mmHg 74%
    14:00 +26°C° 0.9 mm 1 m/s 664 mmHg 79%
    15:00 +25°C° 0.9 mm 1 m/s 663 mmHg 84%
    16:00 +24°C° 0.9 mm 1 m/s 663 mmHg 88%
    17:00 +23°C° 1 mm 1 m/s 663 mmHg 91%
    18:00 +22°C° 1 mm 1 m/s 663 mmHg 93%
    19:00 +21°C° 1 mm 1 m/s 663 mmHg 95%
    20:00 +19°C° 1 mm 0 m/s 664 mmHg 95%
    21:00 +19°C° 1 mm 0 m/s 664 mmHg 96%
    22:00 +18°C° 1 mm 0 m/s 664 mmHg 96%
    23:00 +18°C° 0.3 mm 0 m/s 664 mmHg 96%
    Voir plus